Total_Precipitation_Accumulation
0.50 0.39 0.48 0.55 0.48 0.49 0.75 0.80 0.71 0.42 0.36 0.39 0.38 0.37 0.37 0.37 0.37 0.35 0.34 0.37 0.42 0.48 0.53 0.58 0.65 0.74 0.79 0.83 0.85 0.88 0.99 1.05 1.10 1.14 1.21 1.24 1.21 1.32 1.48 1.43 1.28 1.20 1.20 1.26
0.44 0.30 0.37 0.43 0.34 0.37 0.43 0.45 0.43 0.32 0.33 0.35 0.34 0.29 0.30 0.34 0.38 0.39 0.40 0.40 0.42 0.47 0.51 0.59 0.67 0.77 0.89 0.89 0.88 0.82 0.89 0.98 1.05 1.15 1.29 1.30 1.24 1.27 1.39 1.46 1.37 1.26 1.20 1.21
0.69 0.34 0.58 0.65 0.44 0.43 0.45 0.44 0.48 0.52 0.45 0.34 0.34 0.33 0.39 0.43 0.46 0.46 0.45 0.46 0.45 0.49 0.55 0.63 0.69 0.78 0.90 0.92 0.91 0.87 0.87 0.93 0.99 1.06 1.22 1.29 1.27 1.33 1.38 1.45 1.50 1.47 1.31 1.20
1.16 0.82 1.11 0.57 0.31 0.34 0.40 0.45 0.50 0.48 0.39 0.38 0.41 0.37 0.37 0.44 0.51 0.52 0.48 0.48 0.48 0.52 0.58 0.61 0.68 0.73 0.81 0.86 0.88 0.93 0.94 0.96 1.00 1.01 1.06 1.21 1.32 1.34 1.37 1.39 1.43 1.49 1.43 1.32
1.73 1.23 0.67 0.31 0.25 0.34 0.46 0.51 0.44 0.39 0.36 0.33 0.31 0.28 0.29 0.31 0.39 0.50 0.50 0.51 0.53 0.56 0.60 0.61 0.63 0.69 0.78 0.84 0.86 0.95 1.02 1.01 0.99 0.95 0.98 1.10 1.20 1.31 1.36 1.38 1.34 1.36 1.35 1.35
1.96 1.51 0.72 0.42 0.25 0.23 0.38 0.63 0.39 0.35 0.38 0.34 0.34 0.44 0.35 0.29 0.36 0.46 0.45 0.48 0.53 0.55 0.54 0.58 0.62 0.66 0.76 0.84 0.82 0.92 0.99 1.03 0.94 0.85 0.83 0.87 0.99 1.19 1.31 1.33 1.28 1.28 1.29 1.30
1.65 1.35 0.60 0.38 0.26 0.28 0.62 0.70 0.37 0.36 0.39 0.40 0.46 0.52 0.40 0.35 0.40 0.44 0.42 0.45 0.47 0.49 0.50 0.60 0.65 0.65 0.72 0.81 0.87 0.91 0.98 1.04 0.94 0.84 0.82 0.84 0.91 1.10 1.24 1.32 1.32 1.25 1.21 1.22
1.21 1.40 0.76 0.37 0.39 0.63 0.72 0.41 0.32 0.31 0.32 0.34 0.32 0.29 0.28 0.31 0.37 0.40 0.37 0.37 0.39 0.44 0.48 0.56 0.62 0.66 0.73 0.80 0.87 0.95 1.00 0.98 0.97 0.94 0.89 0.90 0.94 1.07 1.21 1.30 1.37 1.32 1.22 1.19
0.90 0.78 0.51 0.41 0.51 0.53 0.46 0.37 0.29 0.30 0.28 0.28 0.27 0.27 0.30 0.33 0.35 0.38 0.37 0.36 0.37 0.41 0.45 0.52 0.59 0.66 0.77 0.83 0.84 0.91 0.96 0.99 0.99 0.99 0.96 0.97 1.00 1.08 1.21 1.28 1.34 1.32 1.23 1.17
0.64 0.42 0.34 0.35 0.39 0.38 0.34 0.32 0.27 0.27 0.26 0.25 0.24 0.24 0.28 0.32 0.32 0.34 0.35 0.36 0.37 0.40 0.43 0.51 0.58 0.62 0.73 0.81 0.80 0.81 0.87 0.96 0.96 0.98 1.03 1.06 1.08 1.11 1.18 1.28 1.35 1.27 1.20 1.11
0.56 0.35 0.31 0.29 0.30 0.31 0.26 0.23 0.22 0.23 0.24 0.24 0.25 0.24 0.27 0.31 0.32 0.34 0.40 0.40 0.41 0.43 0.46 0.53 0.60 0.67 0.73 0.76 0.75 0.76 0.79 0.92 1.00 1.03 1.08 1.11 1.12 1.16 1.23 1.23 1.38 1.35 1.21 1.13
0.56 0.36 0.42 0.35 0.28 0.27 0.26 0.25 0.26 0.25 0.25 0.22 0.25 0.29 0.28 0.30 0.32 0.36 0.41 0.45 0.45 0.46 0.50 0.55 0.62 0.73 0.76 0.73 0.72 0.75 0.80 0.87 0.97 1.05 1.07 1.06 1.04 1.10 1.27 1.29 1.32 1.29 1.23 1.19
0.38 0.31 0.32 0.28 0.25 0.26 0.26 0.24 0.24 0.25 0.27 0.26 0.24 0.27 0.31 0.33 0.32 0.35 0.39 0.44 0.51 0.55 0.59 0.61 0.65 0.74 0.77 0.74 0.71 0.73 0.80 0.85 0.93 1.02 1.01 0.97 0.93 0.94 1.06 1.22 1.31 1.30 1.26 1.22
0.22 0.26 0.27 0.22 0.21 0.21 0.20 0.20 0.21 0.21 0.22 0.23 0.23 0.25 0.29 0.30 0.29 0.32 0.38 0.45 0.53 0.56 0.59 0.63 0.68 0.75 0.78 0.73 0.70 0.71 0.76 0.87 0.92 0.97 0.99 0.97 0.94 0.93 0.94 1.04 1.16 1.23 1.27 1.24
0.14 0.18 0.22 0.18 0.17 0.16 0.16 0.17 0.18 0.18 0.18 0.17 0.19 0.22 0.26 0.30 0.32 0.35 0.40 0.47 0.53 0.55 0.57 0.63 0.71 0.81 0.81 0.74 0.72 0.73 0.80 0.85 0.86 0.91 0.96 0.98 0.97 0.99 1.01 1.03 1.07 1.12 1.18 1.31
0.14 0.15 0.16 0.17 0.18 0.18 0.18 0.18 0.18 0.17 0.17 0.18 0.19 0.21 0.24 0.30 0.36 0.42 0.47 0.51 0.56 0.61 0.63 0.67 0.73 0.82 0.80 0.73 0.72 0.74 0.83 0.94 0.92 0.93 0.97 0.99 1.00 1.06 1.11 1.13 1.14 1.11 1.12 1.23
0.23 0.20 0.18 0.18 0.17 0.17 0.19 0.20 0.19 0.19 0.18 0.19 0.20 0.21 0.23 0.27 0.33 0.39 0.46 0.53 0.60 0.65 0.66 0.69 0.74 0.78 0.78 0.76 0.74 0.74 0.79 0.87 0.96 0.94 0.92 0.96 1.01 1.05 1.10 1.17 1.18 1.11 1.05 1.15
0.26 0.24 0.21 0.22 0.20 0.19 0.18 0.18 0.18 0.20 0.22 0.22 0.23 0.24 0.26 0.30 0.36 0.43 0.50 0.54 0.57 0.62 0.67 0.70 0.76 0.78 0.79 0.82 0.79 0.76 0.79 0.84 0.87 0.89 0.92 0.98 1.04 1.05 1.11 1.17 1.15 1.12 1.10 1.17
0.19 0.20 0.18 0.18 0.19 0.19 0.19 0.20 0.21 0.23 0.24 0.25 0.26 0.28 0.30 0.34 0.40 0.47 0.53 0.54 0.54 0.58 0.66 0.70 0.78 0.74 0.76 0.84 0.86 0.81 0.85 0.89 0.90 0.89 0.89 1.03 1.09 1.07 1.09 1.14 1.16 1.15 1.16 1.18
0.19 0.18 0.16 0.16 0.16 0.18 0.20 0.22 0.22 0.22 0.23 0.26 0.29 0.29 0.31 0.36 0.41 0.47 0.52 0.54 0.58 0.64 0.65 0.70 0.70 0.69 0.72 0.83 0.90 0.85 0.89 0.93 0.95 0.92 0.91 0.96 1.03 1.07 1.08 1.11 1.15 1.18 1.18 1.20
0.20 0.18 0.16 0.16 0.17 0.18 0.20 0.22 0.22 0.22 0.23 0.26 0.31 0.34 0.38 0.42 0.45 0.48 0.49 0.50 0.52 0.57 0.58 0.63 0.64 0.68 0.72 0.85 0.94 0.90 0.91 0.92 0.94 0.95 0.95 0.97 1.01 1.06 1.08 1.09 1.12 1.15 1.18 1.20
0.21 0.21 0.20 0.18 0.18 0.20 0.22 0.24 0.25 0.26 0.26 0.28 0.32 0.37 0.41 0.44 0.45 0.45 0.46 0.49 0.52 0.58 0.57 0.55 0.58 0.68 0.77 0.85 0.86 0.86 0.87 0.88 0.91 0.96 0.99 1.00 1.06 1.11 1.10 1.09 1.14 1.15 1.16 1.19
0.23 0.22 0.23 0.24 0.24 0.26 0.24 0.24 0.28 0.30 0.31 0.33 0.35 0.39 0.42 0.44 0.45 0.46 0.48 0.49 0.53 0.61 0.59 0.59 0.66 0.75 0.83 0.80 0.78 0.81 0.83 0.86 0.90 0.96 1.01 1.05 1.08 1.12 1.14 1.15 1.16 1.16 1.21 1.23
0.26 0.25 0.26 0.27 0.28 0.28 0.27 0.27 0.29 0.33 0.36 0.38 0.39 0.42 0.45 0.46 0.45 0.46 0.51 0.58 0.62 0.67 0.63 0.69 0.77 0.81 0.85 0.78 0.76 0.80 0.86 0.91 0.94 1.01 1.06 1.09 1.12 1.15 1.15 1.15 1.17 1.16 1.18 1.20
0.30 0.29 0.28 0.28 0.30 0.32 0.33 0.32 0.31 0.33 0.35 0.38 0.41 0.42 0.47 0.51 0.56 0.56 0.56 0.61 0.67 0.72 0.71 0.76 0.82 0.84 0.81 0.80 0.80 0.85 0.93 0.98 1.06 1.17 1.20 1.17 1.15 1.16 1.13 1.11 1.15 1.19 1.18 1.16
0.34 0.35 0.35 0.36 0.37 0.38 0.38 0.37 0.37 0.36 0.35 0.39 0.43 0.46 0.52 0.55 0.58 0.60 0.62 0.64 0.68 0.74 0.74 0.76 0.79 0.82 0.83 0.88 0.91 0.95 1.02 1.08 1.13 1.13 1.10 1.11 1.11 1.10 1.07 1.06 1.10 1.14 1.15 1.13
0.39 0.39 0.39 0.41 0.42 0.43 0.44 0.45 0.47 0.47 0.45 0.49 0.53 0.53 0.56 0.60 0.64 0.66 0.67 0.69 0.71 0.74 0.77 0.80 0.83 0.88 0.93 0.97 1.01 1.05 1.08 1.10 1.11 1.11 1.08 1.10 1.10 1.08 1.05 1.06 1.08 1.10 1.10 1.07